Voltar ao catálogo

STARLINK-34877

AtivoComunicaçõesVLEO
NORAD 65630·PAYLOAD·🇺🇸 United States

Lançado Sep 18, 2025 de Cape Canaveral Space Force Station

Loading…

Próximas Passagens (próximas 24 horas)

TLE

AtualizadoSource: CelesTrak SupGP

Época: Sep 15, 2026, 03:41 UTC

1 65630C 25210J   26258.15395833 -.00049802  00000+0 -14689-2 0  2582
2 65630  53.1571 142.8798 0001331  82.2108  61.0368 15.34468751    11

Acompanhe STARLINK-34877 em tempo real com AllMySat

Download on the App Store